TimeMST,TemperatureF,Dew PointF,Humidity,Sea Level PressureIn,VisibilityMPH,Wind Direction,Wind SpeedMPH,Gust SpeedMPH,PrecipitationIn,Events,Conditions,WindDirDegrees,DateUTC
12:15 AM,46.4,21.2,37,30.32,10.0,Calm,Calm,-,N/A,,Clear,0,2012-12-05 07:15:00
12:35 AM,46.4,19.4,34,30.32,10.0,ENE,3.5,-,N/A,,Clear,60,2012-12-05 07:35:00
12:55 AM,44.6,21.2,39,30.32,10.0,Calm,Calm,-,N/A,,Clear,0,2012-12-05 07:55:00
1:15 AM,44.6,19.4,37,30.31,10.0,ENE,3.5,-,N/A,,Clear,70,2012-12-05 08:15:00
1:35 AM,48.2,19.4,32,30.31,10.0,ENE,3.5,-,N/A,,Clear,60,2012-12-05 08:35:00
1:55 AM,48.2,17.6,30,30.31,10.0,ENE,4.6,-,N/A,,Clear,70,2012-12-05 08:55:00
2:15 AM,48.2,17.6,30,30.31,10.0,NNE,4.6,-,N/A,,Clear,20,2012-12-05 09:15:00
2:35 AM,44.6,17.6,34,30.31,10.0,NNE,3.5,-,N/A,,Clear,20,2012-12-05 09:35:00
2:55 AM,44.6,19.4,37,30.31,10.0,NNE,3.5,-,N/A,,Clear,30,2012-12-05 09:55:00
3:15 AM,48.2,17.6,30,30.30,10.0,NE,4.6,-,N/A,,Clear,40,2012-12-05 10:15:00
3:35 AM,42.8,17.6,36,30.30,10.0,Calm,Calm,-,N/A,,Clear,0,2012-12-05 10:35:00
3:55 AM,44.6,17.6,34,30.29,10.0,Calm,Calm,-,N/A,,Clear,0,2012-12-05 10:55:00
4:15 AM,42.8,17.6,36,30.29,10.0,Calm,Calm,-,N/A,,Clear,0,2012-12-05 11:15:00
4:35 AM,44.6,17.6,34,30.29,10.0,WNW,3.5,-,N/A,,Clear,300,2012-12-05 11:35:00
4:55 AM,44.6,17.6,34,30.28,10.0,East,3.5,-,N/A,,Clear,80,2012-12-05 11:55:00
5:15 AM,46.4,19.4,34,30.28,10.0,ENE,3.5,-,N/A,,Clear,60,2012-12-05 12:15:00
5:35 AM,48.2,23.0,37,30.27,10.0,East,3.5,-,N/A,,Clear,90,2012-12-05 12:35:00
5:55 AM,48.2,23.0,37,30.27,10.0,ENE,3.5,-,N/A,,Clear,60,2012-12-05 12:55:00
7:55 AM,46.4,26.6,46,30.28,10.0,East,3.5,-,N/A,,Clear,90,2012-12-05 14:55:00
8:15 AM,50.0,26.6,40,30.28,10.0,East,4.6,-,N/A,,Clear,90,2012-12-05 15:15:00
8:35 AM,51.8,26.6,38,30.28,10.0,East,3.5,-,N/A,,Clear,80,2012-12-05 15:35:00
8:55 AM,53.6,28.4,38,30.28,10.0,ESE,4.6,-,N/A,,Clear,110,2012-12-05 15:55:00
9:15 AM,55.4,28.4,36,30.29,10.0,ESE,3.5,-,N/A,,Scattered Clouds,120,2012-12-05 16:15:00
9:35 AM,55.4,28.4,36,30.29,10.0,East,4.6,-,N/A,,Partly Cloudy,100,2012-12-05 16:35:00
9:55 AM,57.2,28.4,33,30.29,10.0,East,4.6,-,N/A,,Clear,90,2012-12-05 16:55:00
10:15 AM,57.2,26.6,31,30.29,10.0,SE,6.9,-,N/A,,Clear,130,2012-12-05 17:15:00
10:35 AM,60.8,28.4,29,30.29,10.0,SE,5.8,-,N/A,,Clear,130,2012-12-05 17:35:00
10:55 AM,60.8,26.6,27,30.28,10.0,SSE,3.5,-,N/A,,Clear,160,2012-12-05 17:55:00
11:15 AM,62.6,26.6,26,30.27,10.0,Calm,Calm,-,N/A,,Clear,0,2012-12-05 18:15:00
11:55 AM,64.4,26.6,24,30.24,10.0,South,4.6,-,N/A,,Clear,170,2012-12-05 18:55:00
12:15 PM,64.4,26.6,24,30.22,10.0,ESE,5.8,-,N/A,,Clear,120,2012-12-05 19:15:00
12:35 PM,66.2,26.6,23,30.21,10.0,SE,5.8,-,N/A,,Clear,140,2012-12-05 19:35:00
12:55 PM,66.2,26.6,23,30.20,10.0,SSE,5.8,-,N/A,,Clear,160,2012-12-05 19:55:00
1:15 PM,64.4,24.8,22,30.19,10.0,SSE,4.6,-,N/A,,Clear,150,2012-12-05 20:15:00
1:35 PM,66.2,24.8,21,30.18,10.0,South,4.6,-,N/A,,Clear,180,2012-12-05 20:35:00
1:55 PM,66.2,24.8,21,30.17,10.0,SSE,5.8,-,N/A,,Clear,160,2012-12-05 20:55:00
2:15 PM,66.2,23.0,19,30.16,10.0,South,5.8,-,N/A,,Clear,180,2012-12-05 21:15:00
2:35 PM,66.2,24.8,21,30.16,10.0,SW,5.8,-,N/A,,Clear,220,2012-12-05 21:35:00
2:55 PM,64.4,23.0,21,30.15,10.0,SSW,4.6,-,N/A,,Clear,210,2012-12-05 21:55:00
3:15 PM,64.4,26.6,24,30.14,10.0,South,4.6,-,N/A,,Clear,180,2012-12-05 22:15:00
3:35 PM,62.6,24.8,24,30.14,10.0,SSW,5.8,-,N/A,,Clear,210,2012-12-05 22:35:00
3:55 PM,62.6,21.2,20,30.14,10.0,SSW,3.5,-,N/A,,Clear,200,2012-12-05 22:55:00
4:15 PM,62.6,21.2,20,30.14,10.0,SSW,5.8,-,N/A,,Clear,200,2012-12-05 23:15:00
4:35 PM,60.8,23.0,23,30.14,10.0,Calm,Calm,-,N/A,,Clear,0,2012-12-05 23:35:00
4:55 PM,60.8,23.0,23,30.14,10.0,South,4.6,-,N/A,,Clear,170,2012-12-05 23:55:00
5:15 PM,59.0,24.8,27,30.14,10.0,South,4.6,-,N/A,,Clear,170,2012-12-06 00:15:00
5:35 PM,55.4,24.8,31,30.14,10.0,Calm,Calm,-,N/A,,Clear,0,2012-12-06 00:35:00
5:55 PM,55.4,24.8,31,30.14,10.0,Calm,Calm,-,N/A,,Clear,0,2012-12-06 00:55:00
6:15 PM,55.4,24.8,31,30.14,10.0,SSE,3.5,-,N/A,,Clear,150,2012-12-06 01:15:00
6:35 PM,55.4,23.0,29,30.14,10.0,Calm,Calm,-,N/A,,Clear,0,2012-12-06 01:35:00
6:55 PM,53.6,23.0,30,30.14,10.0,SE,3.5,-,N/A,,Clear,140,2012-12-06 01:55:00
7:15 PM,51.8,23.0,33,30.14,10.0,Calm,Calm,-,N/A,,Clear,0,2012-12-06 02:15:00
7:35 PM,50.0,23.0,35,30.14,10.0,Calm,Calm,-,N/A,,Clear,0,2012-12-06 02:35:00
7:55 PM,50.0,24.8,37,30.14,10.0,NW,3.5,-,N/A,,Clear,310,2012-12-06 02:55:00
8:15 PM,48.2,23.0,37,30.14,10.0,Calm,Calm,-,N/A,,Clear,0,2012-12-06 03:15:00
8:35 PM,48.2,23.0,37,30.14,10.0,Calm,Calm,-,N/A,,Clear,0,2012-12-06 03:35:00
8:55 PM,48.2,23.0,37,30.14,10.0,Calm,Calm,-,N/A,,Clear,0,2012-12-06 03:55:00
9:15 PM,46.4,23.0,40,30.14,10.0,Calm,Calm,-,N/A,,Clear,0,2012-12-06 04:15:00
9:35 PM,46.4,23.0,40,30.13,10.0,Calm,Calm,-,N/A,,Clear,0,2012-12-06 04:35:00
9:55 PM,44.6,23.0,43,30.13,10.0,WNW,3.5,-,N/A,,Clear,300,2012-12-06 04:55:00
10:15 PM,44.6,23.0,43,30.13,10.0,WNW,3.5,-,N/A,,Clear,290,2012-12-06 05:15:00
10:35 PM,46.4,23.0,40,30.13,10.0,Calm,Calm,-,N/A,,Clear,0,2012-12-06 05:35:00
10:55 PM,46.4,23.0,40,30.12,10.0,Calm,Calm,-,N/A,,Clear,0,2012-12-06 05:55:00
11:15 PM,44.6,23.0,43,30.12,10.0,Calm,Calm,-,N/A,,Clear,0,2012-12-06 06:15:00
11:35 PM,44.6,23.0,43,30.12,10.0,WNW,3.5,-,N/A,,Clear,300,2012-12-06 06:35:00
11:55 PM,44.6,23.0,43,30.12,10.0,WNW,3.5,-,N/A,,Clear,300,2012-12-06 06:55:00